Location: ?????????
(55.9000°N, 37.6167°E)
Time: 07:08:19
(UTC+00:00)

Daily predictions for brighter satellites

Satellite Brightness Start Highest point End
(mag) Time Altitude Azimuth Time Altitude Azimuth Time Altitude Azimuth
Sich 1 Rocket 4.0 18:49:42 10° NNW 18:54:15 67° W 18:58:45 10° S
Spot 2 Rocket 4.2 18:49:40 10° S 18:54:37 52° W 18:59:36 10° NNW
Cosmos 1818 4.5 18:51:10 10° NW 18:56:16 41° WSW 19:01:19 10° SSE
Cosmos 1486 Rocket 4.4 18:53:23 10° SW 18:58:40 72° WNW 19:04:00 10° NNE
ATLAS 5 CENTAUR R/B 3.4 18:56:43 10° WNW 18:59:45 28° N 19:03:16 10° NE
Cosmos 1538 Rocket 4.1 18:56:17 10° NNW 19:01:41 87° WSW 19:07:04 10° SSE
Cosmos 1674 Rocket 3.8 18:59:33 10° SSW 19:03:59 75° WNW 19:08:27 10° N
IKONOS-2 4.5 19:04:10 10° NNE 19:08:21 88° E 19:12:28 10° SSW
Meteor 1-21 Rocket 4.5 19:02:59 10° SSW 19:08:38 74° WNW 19:14:13 10° NNE
Cosmos 2297 3.7 19:03:40 10° SSW 19:09:20 87° ESE 19:15:04 10° NE
ATLAS 2AS CENTAUR R/B 3.7 19:02:45 10° WNW 19:09:25 47° N 19:15:54 10° E
NOSS 3-3 (A) 4.5 19:06:26 10° WSW 19:12:05 67° NNW 19:19:00 10° NE
Meteor 2-1 Rocket 4.5 19:06:50 10° NNW 19:12:43 75° W 19:18:25 10° S
Meteor 1-11 4.3 19:06:57 10° S 19:12:46 80° E 19:18:33 10° NNE
Cosmos 1092 Rocket 4.5 19:06:48 10° SSE 19:12:48 47° E 19:18:47 10° NNE
Cosmos 1656 Rocket 4.3 19:10:42 10° SW 19:16:10 60° NW 19:21:36 10° NNE
Cosmos 1812 2.8 19:14:23 10° NNW 19:17:29 52° W 19:20:34 10° S
PSLV R/B 3.8 19:16:57 10° S 19:20:02 53° WSW 19:23:07 10° NNW
ARIANE 5 R/B 3.8 19:16:18 10° SE 19:20:17 33° ENE 19:24:14 10° N
Cosmos 990 Rocket 4.0 19:16:29 10° SSW 19:21:38 72° ESE 19:26:51 10° NNE
Okean O Rocket 4.2 19:20:31 10° SW 19:23:14 16° W 19:25:58 10° NW
Cosmos 1025 Rocket 3.3 19:20:24 10° SSW 19:24:44 72° WNW 19:29:07 10° N
BlueWalker 3 2.1 19:21:44 10° W 19:25:17 47° SSW 19:28:49 10° ESE
Cosmos 2263 Rocket 4.0 19:23:08 10° NNW 19:27:53 27° NNE 19:32:38 10° E
USA 215 3.3 19:27:20 10° ESE 19:33:55 89° SSW 19:40:31 10° WNW
DNEPR-1 R/B 4.0 19:32:29 10° NW 19:36:35 47° SW 19:40:19 12° SSE
RESURS DK-1 2.4 19:34:09 10° NW 19:38:09 72° NE 19:41:50 12° SE
Cosmos 1544 Rocket 3.9 19:34:20 10° N 19:38:39 57° ENE 19:42:32 13° SSE
Cosmos 372 Rocket 4.2 19:35:59 10° S 19:40:51 49° ESE 19:45:45 10° NE
Cosmos 2369 Rocket 2.8 19:39:11 10° SW 19:44:50 63° NW 19:50:30 10° NNE
ASTEX 1 4.4 19:40:51 10° N 19:45:29 45° WNW 19:50:05 10° SW
Meteor 1-27 4.3 19:40:13 10° NNW 19:46:02 82° WSW 19:51:27 11° S
Cosmos 2112 Rocket 4.2 19:41:43 10° NNW 19:47:00 71° ENE 19:51:52 12° SE
Cosmos 1400 Rocket 3.0 19:46:45 10° N 19:50:33 56° ENE 19:53:38 14° SSE
Cosmos 2297 Rocket 2.4 19:46:39 10° NNW 19:52:21 73° NE 19:57:41 12° SE
Cosmos 2058 4.5 19:50:17 12° SE 19:52:52 20° E 19:55:48 10° NE
COBE Rocket 4.0 19:50:44 10° N 19:55:24 71° WNW 20:00:00 10° SSW
Cosmos 1680 Rocket 3.5 19:52:24 10° NNW 19:57:43 88° WSW 20:02:18 14° SSE
Cosmos 1782 3.7 19:54:30 10° N 19:57:55 34° ENE 20:00:47 13° SE
Cosmos 1937 Rocket 3.8 19:54:16 11° S 19:59:03 47° ESE 20:03:57 10° NE
Cosmos 2098 Rocket 2.6 19:57:19 10° NNW 20:00:24 64° W 20:03:21 14° S
CZ-4C R/B 1.9 19:58:38 10° SW 20:03:12 72° SE 20:09:09 10° NE
ISS -2.4 20:00:40 10° WSW 20:03:22 23° SSW 20:04:52 17° SSE
Cosmos 923 Rocket 4.3 20:03:52 10° NNW 20:08:58 59° WSW 20:13:17 14° S
ALOS 2 3.1 20:07:12 14° SE 20:10:51 51° ENE 20:15:08 10° N
Cosmos 1697 Rocket 4.3 20:08:40 12° SE 20:11:51 18° E 20:15:37 10° ENE
BREEZE-M DEB (TANK) 3.7 20:09:03 10° SW 20:12:21 38° SSE 20:21:45 10° E
Cosmos 44 3.0 20:10:44 10° SW 20:15:04 87° NW 20:19:37 10° NE
Lacrosse 5 rocket 1.1 20:14:17 10° WNW 20:18:13 87° SSW 20:22:10 10° ESE
MetOp-A 3.2 20:17:40 17° SSE 20:20:29 87° WSW 20:24:19 10° NNW
Cosmos 1975 Rocket 3.5 20:16:54 10° SSW 20:21:10 60° WNW 20:25:27 10° N
Cosmos 2228 3.8 20:19:14 10° NNW 20:23:16 45° W 20:26:50 13° SSW
Cosmos 2227 Rocket 2.5 20:19:25 10° NNW 20:25:06 65° NE 20:30:35 11° SE
Cosmos 2285 Rocket 4.4 20:19:02 10° SW 20:25:25 70° WNW 20:31:53 10° NNE
Gbstr 26 Del rocket 4.3 20:23:09 10° W 20:28:02 38° SSW 20:33:21 12° SE
Cosmos 1867 3.6 20:24:56 10° SSW 20:30:21 69° SE 20:35:48 10° NE
Cosmos 494 Rocket 4.0 20:25:25 10° NNW 20:30:40 80° WSW 20:34:45 17° SSE
Cosmos 1048 Rocket 4.1 20:34:05 10° NNW 20:39:29 79° ENE 20:43:57 15° SSE
Cosmos 2266 Rocket 4.3 20:34:48 16° S 20:40:01 62° E 20:46:20 10° NNE
CZ-2C R/B 3.8 20:36:55 10° NNE 20:41:42 83° ESE 20:45:38 15° SSW
Cosmos 1898 Rocket 3.7 20:37:29 10° SW 20:42:41 72° WNW 20:47:58 10° NNE
ATLAS 5 CENTAUR R/B 3.2 20:39:56 10° NW 20:43:23 33° NNE 20:47:32 10° E
Spot 4 4.0 20:42:21 17° S 20:46:00 70° WSW 20:50:49 10° NNW
Cosmos 2315 Rocket 4.2 20:39:52 10° N 20:46:17 74° ENE 20:51:29 16° SSE
Landsat 5 3.3 20:47:42 10° NNE 20:51:30 61° ESE 20:53:55 20° S
Cosmos-2242 4.2 20:49:46 10° N 20:53:37 33° ENE 20:57:05 12° SE
ARIANE 5 R/B 3.4 20:53:15 16° SSW 20:56:31 43° W 21:00:46 10° NNW
SL-08 ROCKET BODY 4.4 20:52:50 14° SSW 20:58:02 82° W 21:03:58 10° N
ATLAS 2AS CENTAUR R/B 2.8 20:54:12 10° NW 21:01:04 81° NE 21:07:48 10° SE
Cosmos 1315 Rocket 3.2 20:57:25 10° N 21:01:12 52° ENE 21:03:55 18° SE
BlueWalker 3 3.3 20:59:41 10° W 21:02:25 20° SW 21:03:04 19° SSW
S3M 4.2 21:00:31 10° NNW 21:06:49 70° W 21:11:43 17° S
CZ-4C R/B 4.0 21:05:39 10° N 21:09:08 46° WNW 21:12:23 12° SW
Cosmos 1933 3.2 21:06:16 10° NNW 21:10:11 86° ENE 21:12:40 21° SSE
Cosmos 1656 3.7 21:05:54 10° SSW 21:11:30 89° WNW 21:17:03 10° NE
Cosmos 2263 Rocket 2.4 21:07:03 10° NNW 21:12:44 75° NE 21:18:09 11° SE
Cosmos 1536 Rocket 3.9 21:11:20 15° SSW 21:14:51 62° WNW 21:19:16 10° N
RESURS DK-1 4.1 21:12:22 10° WNW 21:15:11 19° WSW 21:17:10 14° SW
USA 215 3.4 21:10:58 10° SE 21:17:20 52° SW 21:23:43 10° WNW
Cosmos 1606 Rocket 4.0 21:14:40 10° NNW 21:18:55 52° W 21:21:51 19° SSW
USA 290 3.1 21:18:10 10° NNW 21:21:22 47° NE 21:24:01 14° SE
Cosmos 2082 4.2 21:15:44 10° NNW 21:21:24 61° NE 21:27:00 10° SE
H-2A R/B 4.1 21:21:23 10° ESE 21:24:39 27° ENE 21:28:00 10° N
Cosmos 2058 3.3 21:25:46 16° SSW 21:28:45 52° WNW 21:32:38 10° N
Cosmos 1655 Rocket 4.1 21:24:43 18° S 21:29:43 79° E 21:36:07 10° NNE
Cosmos 1782 4.1 21:29:44 10° NNW 21:32:53 27° W 21:35:07 15° SW
Cosmos 2297 Rocket 3.4 21:31:12 10° NW 21:35:56 28° WSW 21:39:27 15° SSW
Cosmos 1602 3.2 21:34:55 24° SSW 21:36:43 77° WNW 21:39:57 10° N
Cosmos 2219 3.2 21:31:50 10° NW 21:37:35 88° NE 21:42:54 12° SSE
Cosmos 1726 Rocket 4.4 21:37:45 10° NNW 21:42:08 44° W 21:45:14 18° SSW
PSLV R/B 3.9 21:38:47 10° NNE 21:43:28 72° WNW 21:47:04 17° SSW
Cosmos 2058 Rocket 3.1 21:39:23 10° NNW 21:43:50 73° W 21:46:51 20° S
Cosmos 1862 3.4 21:43:53 19° SSW 21:46:18 58° WNW 21:49:56 10° N
ALOS 2 4.0 21:44:36 14° SW 21:47:26 26° W 21:51:11 10° NW
Cosmos 1980 Rocket 2.9 21:46:39 18° S 21:50:22 41° ESE 21:55:37 10° NE
CZ-4C R/B 3.3 21:46:54 10° W 21:51:51 49° NNW 21:58:15 10° ENE
Cosmos 1697 Rocket 2.7 21:50:21 16° SSW 21:54:58 79° ESE 22:00:40 10° NE
Lacrosse 5 rocket 1.9 21:51:47 10° W 21:55:20 32° SW 21:57:14 21° S
Cosmos 1356 Rocket 4.2 21:53:36 10° NNW 21:57:21 38° W 21:59:46 19° SSW
CZ-2C R/B 2.9 21:55:25 13° SSE 22:00:22 77° ENE 22:06:00 10° NNW
PSLV R/B 3.9 22:01:29 10° NNE 22:05:28 74° WNW 22:08:12 19° SSW
Cosmos 1892 Rocket 3.9 22:02:38 17° SSW 22:05:46 57° WNW 22:10:02 10° N
IDEFIX/ARIANE 42P 4.4 22:01:57 10° NE 22:05:48 21° E 22:09:37 10° SE
GEOS 3 Rocket 3.6 22:00:33 10° NE 22:05:50 75° SE 22:10:45 12° SW
CENTAUR R/B 4.5 22:04:34 10° ESE 22:06:50 12° E 22:09:15 10° ENE
SeaSat 1 4.1 22:03:22 10° ESE 22:07:46 35° NE 22:12:12 10° NNW
Cosmos 1844 Rocket 3.5 22:02:39 10° NNW 22:08:11 52° NE 22:13:39 10° ESE
Cosmos 2227 Rocket 3.2 22:03:51 10° NW 22:08:49 32° WSW 22:12:21 17° SSW
Meteor 2-3 Rocket 3.8 22:04:29 17° SSW 22:09:03 79° WNW 22:14:52 10° NNE
Cosmos 1602 Rocket 4.5 22:08:39 15° SSE 22:11:49 40° E 22:15:55 10° NNE
Cosmos 1441 Rocket 3.4 22:11:11 19° SW 22:13:27 53° WNW 22:16:51 10° N
Geosat 4.2 22:08:38 10° NE 22:13:37 59° ESE 22:17:18 18° SSW
Cosmos 1758 Rocket 3.9 22:10:53 18° S 22:14:01 57° E 22:18:24 10° NNE
BREEZE M DEB (TANK) 3.5 22:15:53 20° SSE 22:15:53 20° SSE 22:17:31 10° ESE
Cosmos 1844 4.5 22:09:39 10° NNW 22:15:14 54° NE 22:20:51 10° SE
Cosmos 1626 Rocket 3.7 22:12:14 19° S 22:15:18 71° E 22:19:43 10° NNE
Cosmos 1125 Rocket 3.5 22:12:43 17° SSW 22:16:45 80° ESE 22:22:02 10° NNE
BREEZE-M DEB (TANK) 3.9 22:17:52 10° WSW 22:19:46 16° SW 22:19:46 16° SW
Cosmos 614 Rocket 4.4 22:16:46 10° NW 22:21:35 46° WSW 22:25:06 18° S
Cosmos 921 Rocket 3.0 22:18:29 10° NNW 22:22:56 81° WSW 22:26:33 15° SSE
ATLAS 5 CENTAUR R/B 1.6 22:22:31 10° NW 22:26:36 84° NE 22:31:43 10° SE
Cosmos 2151 3.9 22:25:12 14° SSE 22:28:25 38° E 22:32:15 10° NNE
Cosmos 2360 Rocket 4.5 22:27:04 10° ESE 22:29:18 12° E 22:31:31 10° ENE
Cosmos-2242 3.9 22:26:52 10° NNW 22:30:45 36° W 22:33:26 17° SSW
Okean 1 3.1 22:27:16 10° NNW 22:31:00 74° W 22:33:37 19° S
SL-08 R/B 4.5 22:28:53 16° SSW 22:33:48 83° W 22:40:01 10° N
Spot 2 4.0 22:32:03 12° SSE 22:35:40 78° ENE 22:39:41 10° NNW
Cosmos 1238 Rocket 3.5 22:34:57 10° N 22:40:14 83° E 22:44:41 12° SSE
Cosmos 1346 Rocket 4.3 22:38:46 10° SSE 22:41:51 26° E 22:45:00 10° NE
SJ 16-02 4.5 22:42:49 10° N 22:45:02 14° NE 22:47:15 10° ENE
Meteor 2-6 Rocket 4.5 22:41:24 10° NNW 22:47:06 63° W 22:52:09 14° S
USA 32 4.0 22:46:13 16° S 22:50:28 83° W 22:55:44 10° N
ATLAS 2AS CENTAUR R/B 3.3 22:45:26 10° WNW 22:51:30 36° WSW 22:57:03 12° S
Cosmos 2322 Rocket 4.0 22:47:31 10° SSE 22:51:34 21° ESE 22:55:36 10° NE
CZ-2C R/B 2.8 22:48:02 10° NNE 22:52:50 84° WNW 22:56:42 16° SSW
Cosmos 2221 2.6 22:50:07 10° NNW 22:54:21 62° W 22:57:43 15° S
H-2A R/B 4.0 22:52:01 10° NE 22:55:23 22° E 22:58:46 10° SE
USA 290 4.0 22:53:04 10° WNW 22:55:26 19° WSW 22:56:40 15° SW
Cosmos 2263 Rocket 3.3 22:51:30 10° NW 22:56:10 27° WSW 22:59:46 15° SSW
GENESIS II 3.5 22:55:43 22° SSW 22:57:13 52° SE 22:59:54 10° NE
Cosmos 2298 Rocket 4.1 22:53:38 15° SSW 22:57:59 75° ESE 23:03:18 10° NNE
H-2A R/B 2.8 22:56:06 17° SSW 22:58:48 43° W 23:02:36 10° NNW
USA 215 4.5 22:58:07 14° SSW 23:01:27 20° SW 23:06:06 10° W
Cosmos 2082 4.5 23:00:09 10° NW 23:05:15 35° WSW 23:09:36 13° SSW
Cosmos 1953 Rocket 4.4 23:05:52 10° SSE 23:09:59 45° E 23:14:07 10° NNE
Cosmos 1812 Rocket 4.3 23:05:57 10° NNW 23:10:01 38° W 23:13:17 14° SSW
Cosmos 2369 3.7 23:06:12 14° SSW 23:11:10 86° ESE 23:16:51 10° NE
Cosmos 1707 3.5 23:08:02 10° N 23:11:10 40° ENE 23:14:17 10° SE
Meteor 1-27 Rocket 3.9 23:06:33 10° NNW 23:12:33 84° ENE 23:18:28 10° SSE
Landsat 4 3.9 23:11:42 18° SSW 23:13:17 32° W 23:15:53 10° NNW
Cosmos 1023 Rocket 4.4 23:10:44 10° NNW 23:15:53 77° WSW 23:21:04 10° SSE
Cosmos 1743 2.9 23:15:26 12° S 23:18:22 54° E 23:21:40 10° NNE
Cosmos 1140 Rocket 3.4 23:13:14 10° NNW 23:18:25 78° WSW 23:23:35 10° SSE
SL-16 R/B 2.8 23:17:31 11° S 23:22:40 48° ESE 23:28:06 10° NE
MSX 4.1 23:18:22 10° NNE 23:24:07 68° ESE 23:29:50 10° S
Cosmos 2333 Rocket 3.3 23:22:09 10° S 23:27:17 36° ESE 23:32:25 10° NE
Cosmos 1825 Rocket 3.6 23:23:52 13° SSW 23:27:46 82° WNW 23:32:13 10° N
Okean 1-7 Rocket 4.0 23:25:35 13° SSW 23:29:30 57° WNW 23:34:00 10° N
KORONAS-FOTON 3.7 23:26:24 10° N 23:29:58 80° ENE 23:33:29 10° SSE
Cosmos 1745 Rocket 4.3 23:24:40 12° SSW 23:30:30 59° WNW 23:36:49 10° N
Meteor 2-4 Rocket 3.8 23:25:59 10° NNW 23:31:24 75° ENE 23:36:45 10° SSE
NPP 3.9 23:26:01 10° NNE 23:31:26 70° ESE 23:36:49 10° S
Cosmos 1980 Rocket 2.8 23:28:49 10° WSW 23:34:17 53° NW 23:39:50 10° NNE
Resurs 1-4 Rocket 3.0 23:30:29 10° NNE 23:35:34 44° E 23:40:38 10° S
Cosmos 407 Rocket 3.6 23:30:41 10° NNW 23:35:58 88° ENE 23:41:17 10° SSE
Cosmos 1842 3.2 23:32:55 10° N 23:36:20 70° ENE 23:39:44 10° SSE
Cosmos 1697 Rocket 4.1 23:34:23 10° W 23:39:30 33° NW 23:44:38 10° NNE
CZ-2C R/B 4.1 23:36:53 11° SW 23:41:11 24° W 23:45:42 10° NW
CZ-4C R/B 3.8 23:35:47 10° WNW 23:41:16 44° N 23:48:19 10° E
SL-23 DEB 4.5 23:41:13 12° SW 23:43:38 28° SSE 23:46:41 10° E
Cosmos 1709 Rocket 4.2 23:37:35 11° SSW 23:43:43 63° WNW 23:49:58 10° N
SeaSat 1 2.4 23:40:05 10° SSE 23:44:57 67° WSW 23:49:52 10° NW
IDEFIX/ARIANE 42P 2.6 23:40:43 10° NNE 23:45:55 82° WNW 23:51:06 10° SSW
Meteor 1-20 Rocket 4.3 23:40:19 10° SSW 23:46:05 79° WNW 23:51:50 10° NNE
Cosmos 1733 2.9 23:43:13 10° S 23:46:09 61° E 23:49:07 10° NNE
ALOS 3.6 23:42:31 10° NNE 23:46:42 34° E 23:50:51 10° SSE
USA 276 3.9 23:46:23 11° S 23:47:35 13° SSE 23:49:00 10° SE
Cosmos 2181 Rocket 4.0 23:42:46 10° NNW 23:48:54 69° W 23:54:57 10° S
Cosmos 1844 Rocket 3.1 23:46:45 10° NW 23:52:01 42° WSW 23:57:13 10° S
CZ-2D R/B 2.7 23:46:55 10° NNE 23:52:02 52° E 23:57:06 10° S
MOZ.5/SAFIR/RUBIN 5/SL-8 4.2 23:50:43 10° S 23:55:09 44° W 23:59:40 10° NNW
